Wind_Speed
7 7 8 6 4 6 6 5 4 2 2 1 2 3 1 1 1 2 2 3 4 5 5 6 6 7 7 8 8 9 10 10 11 11 11 11 11 10 8 7 5 4 3 2 2 3 4 7 9
6 5 7 5 5 6 5 5 3 3 3 2 3 4 3 3 2 2 3 3 3 4 5 5 5 5 5 5 5 6 7 8 8 9 10 10 10 10 9 8 7 6 5 4 3 2 2 3 5
5 5 6 5 5 5 5 5 4 3 3 3 3 3 3 3 2 3 3 3 4 4 5 6 6 5 4 3 3 3 3 4 5 6 7 8 8 9 9 9 9 8 7 7 6 5 5 4 4
4 4 4 6 5 5 4 4 4 4 4 4 4 4 3 3 3 4 4 4 5 5 6 6 6 6 6 5 4 2 0 1 2 2 3 4 5 6 7 8 9 9 9 9 9 8 8 7 6
3 3 5 4 6 5 5 5 5 5 5 5 4 5 4 4 4 5 6 6 6 6 7 7 8 8 8 7 7 6 5 4 3 2 2 1 1 2 4 5 6 8 9 10 10 10 10 9 8
2 3 3 3 4 4 4 5 5 6 7 7 6 6 5 5 5 5 7 8 8 8 9 9 10 10 10 10 10 9 9 8 6 5 4 3 3 2 1 1 3 4 6 8 9 10 10 10 9
1 1 4 5 5 5 7 7 6 8 8 9 8 7 7 7 7 7 8 9 10 10 10 11 11 12 12 12 13 13 12 11 10 9 8 7 6 5 4 3 2 1 2 4 6 8 9 9 9
4 3 5 8 7 7 8 10 10 10 10 11 10 10 9 9 10 10 11 12 12 12 12 13 13 14 14 14 15 15 15 14 13 13 11 10 9 8 8 7 6 5 3 2 3 4 5 6 7
5 4 6 10 9 11 12 13 13 13 13 13 14 14 13 13 14 14 15 15 15 16 16 16 16 16 16 17 17 17 17 17 17 16 15 14 13 12 11 10 9 8 7 6 4 3 3 3 4
8 6 9 12 14 14 14 15 16 15 16 16 17 17 18 18 18 18 18 19 19 19 20 20 20 20 19 19 19 20 20 20 20 20 20 19 17 15 14 13 12 11 11 10 8 7 6 5 4
11 10 11 15 17 17 16 17 18 18 19 20 21 21 21 22 22 22 22 23 23 23 23 23 24 24 24 23 22 22 22 22 23 23 24 23 21 19 17 16 15 15 14 14 13 11 10 9 7
14 15 16 18 20 21 20 21 22 22 23 24 25 25 25 25 26 26 26 26 26 26 27 27 28 28 28 27 28 27 26 26 27 27 27 26 24 22 20 19 18 18 18 17 16 15 14 12 11
17 19 20 22 23 24 25 25 26 27 28 28 28 28 29 29 30 30 31 31 31 31 31 31 31 32 32 32 31 30 30 29 30 30 29 29 28 25 24 22 21 21 21 20 20 19 17 16 15
21 23 24 26 27 28 28 28 29 30 31 31 31 31 32 32 33 34 35 35 36 36 36 36 36 37 37 36 36 36 35 34 33 32 32 32 31 29 27 26 25 24 24 23 22 21 20 20 18
24 26 28 29 29 29 30 30 30 32 32 33 34 34 34 35 36 37 37 38 39 40 40 40 41 42 42 42 42 41 41 40 38 37 37 35 34 32 32 30 28 27 27 26 25 24 23 22 20
25 27 28 28 29 29 31 32 31 32 34 34 35 36 35 36 37 37 38 39 40 41 41 42 43 44 45 46 46 46 45 45 44 43 41 39 37 34 33 32 32 30 29 28 28 27 25 24 22
25 22 25 30 31 32 32 33 32 33 33 34 34 34 35 35 35 35 35 36 37 38 39 41 42 43 44 45 47 47 48 48 48 47 45 44 42 38 36 34 34 35 33 31 30 29 28 26 24
24 24 25 33 35 34 34 33 30 30 31 32 32 32 33 34 34 34 34 34 35 36 37 38 39 40 42 43 45 46 48 48 49 49 48 47 46 43 40 37 36 36 36 34 32 31 31 29 26
25 26 27 34 33 31 32 32 30 28 29 29 31 31 32 33 33 34 34 35 36 36 38 39 39 40 41 42 43 45 46 48 48 49 49 49 49 48 46 43 40 38 38 36 35 34 33 32 29
25 26 26 31 28 28 30 30 29 28 28 29 30 31 31 31 32 32 33 34 34 35 36 37 37 38 39 40 42 44 45 47 49 50 50 50 50 50 49 47 44 42 40 38 37 36 34 33 31
24 24 24 26 28 27 28 29 28 24 24 26 27 29 29 29 29 29 30 30 31 32 32 33 33 34 35 37 39 40 42 45 47 49 50 51 51 51 50 48 46 45 43 39 36 35 34 33 31
20 20 21 23 24 26 25 26 27 23 23 24 24 24 25 25 25 25 26 27 27 27 27 28 28 29 31 32 34 36 38 40 43 46 48 48 49 49 49 47 47 45 43 40 39 35 33 32 31
18 18 19 20 20 20 21 23 26 23 23 23 22 23 24 24 24 24 24 24 24 23 24 24 24 25 26 28 30 31 33 34 36 39 41 43 44 45 45 46 45 45 43 42 41 39 35 32 31
16 17 17 16 16 17 17 20 24 22 22 22 22 23 24 24 23 23 22 21 20 19 19 19 19 20 22 23 24 25 26 27 29 31 33 36 38 39 40 42 42 42 41 40 40 38 36 34 32
14 15 16 16 17 17 18 19 20 20 21 21 21 22 22 21 21 19 18 17 17 17 16 15 16 17 18 18 18 19 19 20 21 23 25 28 31 33 35 37 39 38 38 38 38 36 35 34 33
14 15 14 11 9 15 17 18 19 19 19 20 20 20 19 18 18 18 17 16 16 16 16 16 15 16 16 17 16 15 14 14 15 16 18 21 25 28 31 33 36 36 36 37 37 35 34 34 33
14 14 14 12 11 10 16 18 16 17 18 19 19 18 17 17 18 18 18 18 18 18 17 17 17 17 17 17 16 15 14 12 11 11 13 15 18 21 24 28 32 35 35 35 35 35 34 34 34
14 15 15 14 14 11 13 18 19 19 20 19 17 16 16 17 18 19 19 19 20 20 20 19 19 19 18 18 17 15 14 12 11 10 9 10 12 15 19 23 26 29 31 32 33 34 34 34 33
15 16 16 16 16 15 15 17 18 18 18 17 16 16 16 17 18 19 19 20 20 21 21 21 21 21 20 19 18 17 15 14 12 11 9 7 7 9 12 16 20 23 25 28 30 33 33 34 33
16 17 17 17 17 16 16 16 16 16 16 16 16 16 16 17 18 19 19 20 21 21 22 22 23 22 22 21 19 18 16 15 13 12 10 9 8 7 8 10 13 17 20 23 26 28 31 32 33
Wind_Direction
79 82 79 75 62 64 61 55 47 19 355 338 294 289 312 247 239 229 198 174 162 151 144 139 131 121 111 101 95 90 85 83 82 81 81 82 83 84 87 91 98 111 127 149 183 212 218 224 225
75 82 79 73 54 58 56 48 36 4 334 315 304 304 305 290 269 252 230 219 207 186 176 171 163 150 134 117 105 95 85 81 80 79 79 79 80 81 82 85 87 89 93 98 103 113 140 183 206
73 77 86 78 59 51 47 42 19 356 331 317 316 320 312 308 294 265 257 260 256 234 215 204 197 189 180 167 142 113 88 77 74 75 75 75 77 79 80 81 81 82 84 87 89 93 105 120 143
65 58 63 57 48 47 33 27 12 348 336 330 336 343 339 331 297 276 271 272 274 267 252 239 229 221 215 215 220 226 259 26 40 48 59 66 70 75 78 79 79 79 80 82 85 87 94 103 114
49 34 35 33 34 26 18 360 354 344 330 330 341 345 354 345 316 292 278 271 271 273 268 259 252 246 241 240 242 250 261 277 294 308 317 348 34 61 74 79 80 81 81 81 83 86 90 97 103
36 9 6 359 13 354 348 334 334 322 320 320 329 332 332 333 323 303 288 278 274 272 273 270 265 260 256 255 256 258 263 269 275 280 281 277 278 283 309 77 83 87 86 84 84 86 90 93 97
283 305 311 315 324 318 309 308 304 309 311 310 314 317 313 313 304 299 293 286 280 276 273 275 273 269 264 262 262 263 264 267 269 270 270 268 263 260 259 254 238 177 114 98 92 90 91 93 95
281 285 292 286 288 286 293 295 297 297 299 299 300 302 299 296 293 291 287 285 282 279 274 271 272 271 269 266 264 264 265 265 265 265 264 262 258 253 250 249 245 240 226 188 137 112 104 99 98
275 269 271 267 279 287 289 291 291 290 291 290 290 291 289 287 286 285 284 281 279 277 275 272 270 268 268 266 266 265 264 264 262 261 259 257 255 251 247 245 244 243 241 233 218 196 167 139 120
275 263 251 267 286 287 289 290 292 292 288 287 287 287 286 285 284 281 279 277 275 274 274 274 273 270 269 268 266 264 261 261 260 258 255 252 250 247 245 241 241 243 244 242 238 230 220 209 193
282 279 270 278 285 287 290 291 291 292 290 287 286 285 284 282 280 279 278 276 273 272 271 270 270 270 270 269 267 265 263 261 259 257 255 251 247 243 241 242 241 243 245 245 243 240 235 230 226
286 286 285 287 290 293 296 295 295 294 292 290 287 284 282 280 279 278 276 274 272 271 269 268 269 269 270 270 270 267 264 263 261 258 255 254 252 248 242 241 242 243 244 245 244 243 240 237 235
288 289 291 292 294 295 297 298 297 295 293 291 289 286 284 282 279 277 275 273 272 272 271 270 268 268 269 269 270 270 269 269 268 265 260 255 252 250 246 240 240 242 243 245 245 244 243 241 238
292 294 294 295 296 297 298 298 297 294 293 291 289 286 284 281 279 277 276 274 273 271 270 269 269 268 268 267 267 268 269 269 269 267 267 261 254 250 248 244 241 242 243 243 245 244 243 243 241
294 296 296 297 296 297 297 296 295 293 292 290 288 286 283 282 280 279 278 277 275 274 272 270 269 268 268 267 267 267 268 267 267 266 267 266 261 255 251 247 244 243 243 243 244 245 244 243 243
294 299 300 299 298 299 299 297 294 292 291 290 289 288 286 285 284 283 282 281 279 277 276 274 271 270 269 268 268 267 268 268 267 266 266 266 263 261 258 253 248 246 245 245 244 243 244 243 243
301 304 297 296 297 302 300 297 295 294 292 291 291 290 290 290 289 288 286 284 282 281 280 277 275 273 271 270 269 268 268 268 268 267 266 266 265 263 261 259 256 252 248 245 244 242 243 243 243
297 297 290 290 298 303 300 298 298 297 295 295 295 295 294 293 292 291 289 287 286 284 282 280 278 275 274 272 270 269 269 268 268 267 265 264 264 263 263 261 260 257 251 247 245 242 242 242 242
294 292 289 287 299 301 300 302 302 301 298 299 299 299 298 297 296 294 292 290 288 286 284 282 279 276 274 272 271 269 268 267 267 266 266 263 262 261 260 261 260 258 254 251 249 245 244 240 239
295 293 291 292 301 302 303 303 304 303 301 302 302 302 301 300 298 297 295 293 291 289 287 284 281 278 275 273 271 270 268 267 266 266 265 263 262 260 259 259 258 258 256 254 252 248 245 241 239
298 299 298 297 304 304 305 305 305 306 305 305 305 304 303 301 299 298 296 295 294 293 291 289 285 281 278 275 273 272 270 268 266 265 263 262 260 259 258 258 257 256 255 253 253 251 248 244 241
306 309 306 304 307 308 312 312 313 322 318 315 313 311 310 308 307 306 305 303 301 298 297 295 292 288 285 283 279 276 274 272 268 264 262 260 259 257 256 256 255 255 253 252 251 250 248 245 242
315 316 314 312 311 311 317 318 319 330 326 323 322 321 320 317 315 314 312 310 309 307 304 301 299 296 292 289 286 281 278 275 270 265 260 258 256 255 253 252 253 253 253 252 251 252 250 247 243
324 323 321 319 324 327 329 324 326 333 331 329 328 328 327 326 325 323 321 321 321 319 317 315 312 309 306 301 294 289 284 278 272 266 260 256 255 252 249 248 250 250 251 250 250 252 251 248 244
334 334 335 338 337 332 331 329 334 332 333 332 333 334 335 337 338 339 341 342 341 339 337 337 334 330 327 322 312 302 294 286 279 271 262 257 252 248 245 243 243 245 246 246 247 248 249 248 244
348 346 347 344 324 320 332 339 341 339 339 339 340 342 346 351 357 2 5 5 5 4 1 358 353 350 348 344 339 328 315 302 294 284 270 260 252 247 243 241 240 240 241 242 242 244 246 246 244
359 1 0 357 355 340 331 349 352 348 348 348 349 352 360 8 12 17 20 20 18 16 13 10 7 2 358 355 350 348 346 336 322 300 282 268 257 250 245 242 240 240 241 242 241 241 242 242 242
14 12 9 6 6 358 337 347 354 356 355 357 1 8 15 19 22 24 26 25 23 21 20 19 15 13 11 10 8 4 1 1 357 342 311 289 273 259 251 245 244 243 243 244 242 241 242 243 243
20 17 15 13 14 7 1 0 357 0 3 8 14 17 20 23 24 24 24 23 24 24 23 21 18 15 14 12 11 10 8 6 3 1 351 330 302 277 265 255 251 248 246 245 245 245 246 247 246
25 22 20 19 17 14 12 13 8 9 12 16 19 21 22 24 23 23 24 25 26 26 25 23 22 21 20 17 15 14 13 11 9 5 359 348 335 315 290 277 264 256 251 249 248 248 248 248 248
Height
5920 5920 5920 5920 5920 5919 5918 5918 5918 5917 5918 5917 5916 5916 5916 5916 5917 5919 5917 5916 5916 5916 5916 5916 5916 5916 5916 5916 5915 5915 5914 5914 5913 5912 5911 5910 5909 5908 5907 5907 5906 5905 5905 5905 5905 5905 5905 5905 5906
5922 5921 5922 5922 5921 5920 5920 5920 5919 5919 5919 5918 5917 5917 5917 5916 5917 5917 5916 5917 5917 5917 5917 5917 5917 5917 5917 5917 5917 5916 5916 5915 5915 5914 5913 5912 5911 5910 5909 5908 5907 5906 5906 5905 5905 5905 5905 5905 5906
5924 5923 5924 5923 5921 5922 5922 5921 5920 5920 5919 5919 5919 5918 5918 5917 5917 5917 5917 5918 5918 5918 5917 5917 5917 5918 5918 5918 5917 5917 5917 5916 5916 5915 5915 5914 5913 5912 5911 5910 5909 5908 5907 5906 5905 5905 5905 5905 5905
5925 5925 5925 5924 5923 5923 5922 5922 5921 5920 5920 5919 5919 5919 5917 5918 5917 5917 5917 5918 5918 5918 5918 5918 5918 5918 5918 5918 5918 5918 5917 5917 5917 5916 5916 5915 5915 5914 5913 5912 5911 5910 5908 5907 5906 5906 5905 5905 5906
5926 5926 5926 5924 5924 5924 5923 5922 5922 5921 5920 5920 5920 5919 5918 5918 5917 5917 5917 5917 5917 5917 5917 5917 5917 5917 5917 5917 5917 5917 5917 5917 5917 5916 5916 5916 5916 5915 5914 5913 5912 5911 5910 5909 5908 5907 5907 5907 5907
5928 5927 5926 5926 5925 5925 5924 5923 5923 5922 5921 5920 5920 5919 5918 5918 5917 5917 5916 5916 5916 5916 5916 5916 5916 5916 5916 5916 5916 5916 5916 5916 5916 5916 5916 5916 5916 5915 5915 5914 5914 5913 5912 5911 5910 5909 5909 5908 5908
5929 5928 5926 5926 5926 5925 5924 5923 5923 5922 5921 5920 5920 5920 5918 5918 5917 5916 5915 5915 5914 5914 5914 5914 5914 5914 5914 5915 5915 5915 5915 5915 5915 5915 5915 5915 5915 5915 5915 5914 5914 5914 5913 5912 5912 5911 5910 5910 5910
5928 5928 5926 5925 5925 5924 5923 5922 5922 5922 5921 5920 5919 5919 5918 5917 5916 5915 5914 5913 5912 5912 5912 5912 5911 5911 5911 5912 5912 5912 5912 5912 5913 5913 5913 5913 5913 5914 5913 5913 5913 5913 5913 5913 5913 5912 5912 5911 5911
5927 5928 5926 5923 5922 5923 5922 5922 5921 5920 5920 5918 5917 5916 5916 5915 5914 5913 5912 5911 5910 5909 5909 5908 5908 5908 5908 5908 5908 5908 5909 5909 5909 5910 5910 5911 5911 5911 5911 5911 5912 5912 5912 5912 5912 5912 5912 5912 5912
5926 5926 5925 5922 5922 5922 5921 5920 5919 5919 5918 5917 5916 5914 5913 5912 5911 5910 5909 5908 5908 5907 5906 5905 5905 5904 5904 5904 5904 5904 5904 5905 5905 5906 5906 5907 5907 5908 5908 5908 5909 5910 5910 5911 5911 5911 5912 5912 5912
5924 5924 5923 5922 5921 5920 5920 5918 5917 5916 5915 5914 5912 5911 5910 5908 5907 5906 5905 5904 5904 5903 5902 5901 5900 5900 5900 5899 5899 5899 5900 5900 5900 5900 5901 5901 5903 5904 5905 5905 5906 5907 5908 5908 5909 5909 5910 5911 5911
5922 5922 5921 5920 5918 5917 5917 5915 5914 5912 5911 5910 5908 5906 5905 5904 5902 5901 5900 5899 5898 5898 5897 5896 5895 5895 5894 5894 5893 5893 5893 5894 5894 5895 5896 5896 5897 5898 5900 5901 5902 5903 5904 5905 5906 5907 5908 5908 5909
5920 5919 5918 5916 5915 5913 5912 5911 5909 5907 5905 5904 5902 5901 5899 5898 5896 5895 5894 5893 5892 5891 5891 5890 5889 5889 5888 5888 5887 5886 5887 5888 5888 5888 5890 5891 5892 5893 5895 5897 5898 5899 5901 5902 5903 5904 5905 5905 5906
5916 5915 5913 5912 5910 5908 5907 5906 5904 5901 5899 5897 5895 5893 5892 5890 5889 5887 5886 5885 5884 5883 5883 5883 5882 5881 5881 5881 5880 5880 5881 5881 5881 5882 5883 5883 5885 5886 5889 5891 5892 5895 5896 5897 5898 5899 5900 5901 5902
5912 5911 5909 5907 5905 5904 5902 5901 5898 5895 5892 5890 5888 5886 5884 5882 5880 5879 5878 5877 5875 5875 5874 5874 5874 5873 5873 5872 5872 5873 5873 5873 5874 5875 5875 5876 5878 5879 5882 5884 5887 5888 5890 5891 5893 5894 5896 5897 5898
5909 5907 5905 5902 5900 5898 5898 5895 5893 5889 5886 5883 5881 5878 5877 5874 5872 5871 5870 5868 5866 5865 5865 5864 5864 5864 5863 5863 5863 5863 5864 5865 5866 5867 5868 5868 5870 5871 5874 5877 5879 5882 5883 5885 5886 5888 5890 5892 5893
5905 5904 5901 5896 5895 5893 5891 5888 5886 5883 5879 5876 5874 5871 5869 5867 5865 5863 5862 5859 5858 5856 5855 5854 5853 5853 5853 5853 5853 5853 5854 5855 5856 5858 5859 5860 5861 5863 5866 5869 5871 5874 5877 5878 5879 5882 5884 5886 5888
5902 5900 5897 5891 5889 5888 5884 5882 5880 5877 5873 5870 5867 5865 5862 5860 5857 5855 5853 5851 5849 5847 5846 5844 5843 5843 5842 5842 5842 5842 5843 5844 5845 5847 5849 5851 5853 5855 5858 5861 5862 5865 5868 5871 5872 5874 5876 5879 5882
5899 5897 5894 5887 5886 5883 5879 5876 5873 5871 5868 5865 5861 5859 5856 5853 5850 5847 5845 5843 5840 5838 5836 5834 5833 5832 5831 5831 5831 5831 5832 5832 5834 5835 5838 5840 5843 5846 5848 5851 5854 5856 5860 5863 5865 5866 5869 5872 5875
5895 5892 5889 5883 5882 5879 5874 5871 5868 5865 5862 5859 5856 5853 5850 5846 5843 5840 5837 5834 5832 5829 5826 5824 5822 5821 5820 5820 5819 5819 5820 5820 5821 5823 5825 5828 5831 5834 5837 5841 5844 5847 5851 5854 5857 5859 5861 5863 5866
5890 5887 5884 5880 5876 5874 5870 5866 5863 5861 5858 5855 5851 5848 5844 5840 5837 5834 5830 5827 5824 5820 5817 5815 5812 5811 5810 5809 5808 5808 5808 5808 5809 5810 5812 5815 5818 5822 5826 5829 5833 5837 5841 5845 5848 5851 5853 5856 5858
5886 5883 5880 5876 5873 5869 5866 5862 5857 5856 5853 5850 5846 5843 5839 5835 5831 5828 5824 5820 5817 5813 5810 5807 5804 5802 5800 5799 5798 5797 5796 5796 5796 5797 5799 5802 5805 5809 5813 5818 5822 5827 5831 5835 5839 5843 5845 5848 5851
5883 5879 5876 5873 5869 5866 5863 5860 5855 5853 5849 5846 5842 5839 5835 5831 5827 5823 5819 5815 5811 5807 5804 5800 5797 5795 5792 5790 5788 5786 5785 5785 5784 5785 5786 5789 5792 5796 5801 5806 5812 5816 5821 5826 5830 5833 5837 5839 5842
5880 5877 5874 5870 5867 5864 5862 5859 5854 5851 5847 5844 5840 5836 5832 5827 5823 5819 5814 5810 5807 5803 5799 5796 5793 5790 5787 5784 5781 5778 5777 5775 5775 5775 5776 5778 5782 5786 5790 5795 5801 5806 5811 5816 5820 5824 5828 5831 5834
5879 5876 5872 5868 5864 5863 5861 5858 5855 5850 5846 5842 5839 5834 5830 5825 5821 5816 5812 5808 5804 5800 5797 5793 5790 5786 5783 5779 5776 5773 5771 5769 5768 5767 5768 5770 5773 5776 5780 5785 5790 5796 5801 5806 5810 5814 5818 5822 5825
5878 5875 5872 5869 5866 5863 5860 5857 5855 5850 5846 5842 5838 5833 5829 5824 5820 5815 5811 5807 5803 5800 5796 5792 5788 5785 5781 5777 5774 5770 5767 5765 5763 5762 5763 5764 5766 5768 5771 5776 5780 5786 5791 5795 5799 5804 5808 5811 5814
5878 5874 5871 5869 5866 5863 5859 5857 5854 5849 5845 5841 5837 5833 5829 5825 5820 5816 5812 5808 5804 5800 5796 5792 5789 5785 5781 5777 5773 5769 5766 5763 5761 5760 5760 5760 5761 5763 5765 5768 5772 5777 5781 5785 5789 5794 5798 5801 5805
5879 5875 5872 5869 5865 5863 5861 5856 5853 5848 5845 5841 5837 5834 5830 5826 5822 5818 5814 5810 5806 5802 5798 5794 5789 5785 5781 5776 5773 5769 5766 5763 5761 5759 5758 5758 5758 5759 5761 5763 5766 5769 5773 5776 5780 5784 5788 5791 5795
5880 5877 5873 5869 5866 5863 5860 5859 5853 5849 5845 5842 5839 5835 5832 5828 5824 5820 5816 5813 5808 5804 5800 5796 5791 5787 5782 5778 5774 5770 5767 5764 5762 5760 5758 5757 5757 5758 5758 5759 5761 5764 5767 5770 5773 5776 5779 5783 5787
5880 5877 5874 5871 5867 5864 5860 5860 5853 5850 5847 5844 5840 5837 5834 5830 5827 5823 5819 5815 5811 5807 5803 5798 5794 5789 5784 5780 5776 5772 5769 5766 5763 5761 5759 5758 5757 5757 5757 5757 5758 5760 5762 5764 5767 5769 5772 5775 5778